Location: Lombard
(41.8800°N, 88.0080°W)
Time: 14:06:23
(UTC-05:00)

DIWATA 2B (PO-101) - Visible Passes

Search period start: 16 May 2022 00:00
Search period end: 26 May 2022 00:00
Orbit: 584 x 599 km, 98.0° (Epoch: 16 May)

Date Brightness Start Highest point End Pass type
(mag) Time Alt. Az. Time Alt. Az. Time Alt. Az.
16 May ? 01:27:32 12° E 01:28:50 14° ENE 01:30:59 10° NNE visible
16 May ? 03:04:06 52° W 03:04:06 52° W 03:07:59 10° NNW visible
17 May ? 01:35:57 15° E 01:37:09 17° ENE 01:39:50 10° NNE visible
17 May ? 03:12:31 42° W 03:12:31 42° W 03:16:18 10° NNW visible
18 May ? 01:44:23 18° E 01:45:29 20° ENE 01:48:33 10° NNE visible
18 May ? 03:20:57 33° W 03:20:57 33° W 03:24:35 10° NNW visible
19 May ? 01:52:49 22° E 01:53:49 24° ENE 01:57:12 10° NNE visible
19 May ? 03:29:22 27° W 03:29:22 27° W 03:32:48 10° NW visible
20 May ? 02:01:14 27° E 02:02:10 30° ENE 02:05:48 10° N visible
20 May ? 03:37:48 22° W 03:37:48 22° W 03:40:58 10° NW visible
21 May ? 02:09:40 32° E 02:10:32 36° ENE 02:14:21 10° N visible
21 May ? 03:46:14 18° W 03:46:14 18° W 03:49:04 10° NW visible
22 May ? 02:18:06 39° ESE 02:18:53 45° ENE 02:22:51 10° N visible
22 May ? 03:54:39 15° W 03:54:39 15° W 03:57:01 10° WNW visible
23 May ? 02:26:31 48° ESE 02:27:15 56° ENE 02:31:20 10° N visible
23 May ? 04:03:05 12° W 04:03:08 12° W 04:04:43 10° WNW visible
24 May ? 02:34:56 57° SE 02:35:38 70° ENE 02:39:46 10° N visible
25 May ? 02:43:22 63° SSE 02:44:01 88° ENE 02:48:11 10° NNW visible
